Theta_e
352 358 364 363 363 363 363 361 361 360 360 359 357 356 355 353 352 350 349 348 347 346 346 344 343 342 342 342 342 342 342 342 343 344 346 348 350 352 355 356 360 357 360
355 358 363 364 363 361 359 359 358 359 359 359 356 354 352 351 349 348 346 346 345 343 342 341 340 339 340 340 340 340 340 340 341 342 342 343 345 348 354 356 357 358 360
354 357 359 363 362 360 360 360 359 360 360 358 354 352 350 348 347 345 344 342 341 339 339 338 336 337 337 337 337 336 337 338 339 341 342 332 332 341 352 356 356 358 358
355 355 357 363 362 360 359 359 360 358 355 354 353 351 348 346 344 342 340 338 337 337 337 335 334 334 334 334 334 335 338 340 342 343 332 331 330 338 353 356 357 356 357
354 356 356 363 362 360 357 357 357 355 354 352 351 348 346 343 339 338 338 337 336 335 335 333 333 332 333 333 334 336 339 341 342 336 325 325 325 342 348 356 355 356 355
353 356 360 361 360 358 355 354 353 351 350 351 349 347 343 339 338 339 338 337 335 334 333 333 333 333 334 335 337 339 340 341 342 325 323 322 327 339 356 354 354 356 357
350 354 356 360 359 357 354 354 352 351 350 349 347 344 340 339 339 338 337 337 336 335 335 334 334 336 337 338 339 340 341 342 333 326 326 326 329 345 354 351 352 354 354
349 352 353 358 359 358 356 353 351 351 350 348 345 342 340 339 340 339 338 338 337 336 336 335 336 336 338 339 340 342 342 342 335 328 328 324 338 351 348 348 348 348 352
350 349 350 351 353 356 355 353 351 350 348 346 346 343 340 339 340 340 340 339 338 338 338 338 339 340 341 342 343 345 345 345 334 331 331 328 341 345 344 344 342 342 344
347 348 347 348 346 346 346 352 350 348 347 345 343 342 341 339 340 341 343 342 340 340 341 341 342 343 345 346 348 349 349 349 332 328 329 327 342 342 342 341 339 340 342
345 345 346 344 344 344 344 347 349 348 346 345 342 342 343 333 331 336 339 342 341 342 343 344 345 348 349 347 348 347 348 338 331 330 328 338 346 347 346 346 347 344 341
342 344 345 343 343 344 345 343 340 339 337 335 336 334 334 331 329 333 336 342 342 344 345 347 348 349 348 336 334 337 330 332 332 329 325 341 349 344 345 346 346 347 346
343 343 343 343 344 343 343 340 337 334 333 333 333 331 333 332 328 331 331 332 337 343 337 335 332 334 334 332 332 329 326 327 326 324 328 345 347 343 345 345 346 346 345
341 341 342 343 344 343 341 339 336 333 332 330 332 329 328 328 330 331 331 331 330 330 329 330 332 330 331 332 329 327 327 327 326 325 325 339 341 340 339 342 342 342 343
339 339 339 344 344 342 337 336 333 331 331 330 330 332 333 330 332 332 332 333 330 329 329 328 329 331 329 328 327 326 326 325 325 325 322 334 333 334 335 337 339 340 340
339 339 341 344 342 339 337 333 333 330 329 330 329 330 331 333 332 332 331 331 330 330 330 330 328 325 321 320 319 319 319 318 323 322 322 321 330 330 331 332 333 335 336
341 341 342 340 341 338 332 333 332 329 329 328 326 328 329 328 329 331 332 328 331 332 330 325 319 316 313 313 311 311 311 313 318 318 319 319 320 326 328 329 330 330 332
340 340 341 342 340 335 333 330 330 329 327 326 329 329 330 327 329 329 328 328 330 325 319 318 314 310 309 309 308 307 306 309 311 313 313 315 318 320 322 326 327 328 330
340 341 340 342 340 338 334 332 328 328 328 330 330 330 329 329 332 329 328 326 319 316 317 315 311 309 307 307 309 307 306 305 306 310 308 310 313 315 317 322 324 324 326
341 342 341 341 339 338 336 334 332 331 333 332 332 332 329 332 332 322 318 315 314 313 311 310 308 308 307 306 309 307 305 304 305 305 306 310 311 312 312 315 316 317 323
341 341 341 339 338 339 335 334 331 330 332 332 333 333 333 331 323 318 315 312 312 312 310 310 309 306 306 306 303 302 302 303 303 304 305 308 310 312 312 314 314 315 316
337 339 338 338 337 336 335 333 331 331 331 330 330 330 330 324 323 319 313 311 310 309 309 309 307 305 305 306 302 297 296 298 300 303 305 307 308 309 312 314 313 313 313
337 337 337 337 336 335 335 332 331 331 329 327 326 325 323 323 319 315 313 311 309 309 308 307 307 306 303 305 303 301 295 292 296 300 302 305 306 308 309 313 313 312 312
338 339 337 334 333 335 333 329 328 325 323 324 324 323 319 321 316 315 314 313 310 309 308 309 311 307 305 302 303 304 301 300 295 295 300 303 304 306 307 310 312 314 311
337 336 335 334 332 332 330 328 326 322 322 323 323 320 315 314 314 316 314 311 309 309 309 309 309 308 306 304 302 301 300 299 298 297 295 302 306 305 307 309 312 311 313
335 335 334 334 328 324 323 321 321 321 319 318 316 318 316 313 312 313 314 310 309 311 310 310 310 309 308 306 304 302 301 300 298 296 295 297 298 302 306 308 312 313 312
Wind_Speed
10 12 16 15 16 14 14 15 15 15 14 13 14 15 14 13 12 11 10 10 9 8 7 6 4 4 4 5 6 6 6 7 9 9 8 8 7 4 2 3 8 7 9
15 13 17 16 16 15 15 13 13 12 12 13 15 14 12 11 10 9 8 8 7 6 5 4 4 4 5 6 7 8 9 9 11 10 9 9 9 8 4 2 4 6 8
15 13 14 17 16 16 15 14 12 13 13 14 14 13 11 10 9 8 7 6 5 4 4 4 4 4 5 6 7 9 10 12 13 14 12 4 5 9 8 5 5 6 7
16 13 13 18 17 18 16 13 15 14 13 14 13 12 11 9 8 7 5 4 4 4 4 3 4 5 5 6 7 8 10 11 13 14 5 6 7 12 11 10 9 9 8
14 12 14 19 18 17 17 14 12 12 12 12 12 11 10 9 7 6 5 4 3 3 2 2 3 4 5 5 6 7 10 11 12 10 7 7 6 8 14 10 8 9 9
14 13 17 19 18 17 17 15 13 12 12 12 12 11 9 8 7 6 6 5 4 2 2 1 2 3 5 6 7 9 10 12 13 7 7 8 8 9 8 9 9 9 10
13 12 14 18 17 17 16 15 14 13 13 13 11 10 9 9 8 7 6 6 6 4 4 3 3 4 6 9 11 11 11 12 6 7 7 10 7 9 8 8 8 7 6
15 13 13 18 18 17 16 15 15 15 14 13 12 12 11 10 9 8 8 8 7 6 5 5 5 5 7 10 13 14 14 14 6 6 6 7 5 7 9 9 9 7 6
15 14 13 13 16 17 15 15 16 15 14 13 11 11 11 10 9 9 9 8 7 7 7 7 8 7 8 10 13 15 17 15 6 4 8 3 7 8 11 12 9 8 8
12 12 12 11 11 9 11 17 17 16 15 14 12 12 11 10 10 11 9 9 9 9 9 9 11 10 10 11 13 14 19 19 1 4 5 4 10 9 8 7 6 7 8
10 10 11 12 10 9 9 11 16 17 16 15 13 12 8 4 6 8 9 12 11 11 11 11 10 13 12 12 13 17 18 6 2 3 4 8 10 10 10 9 10 10 10
15 13 12 12 12 10 9 9 7 8 6 5 6 6 4 5 5 6 8 13 13 14 12 12 11 14 13 4 4 9 4 6 5 4 4 8 10 12 12 12 11 11 11
17 13 14 13 12 12 10 6 3 3 3 4 6 6 5 3 4 3 3 4 4 9 3 5 5 3 5 3 4 4 4 3 2 3 6 10 10 13 14 13 13 11 12
16 16 16 14 13 12 6 7 6 5 4 3 5 5 4 3 4 4 3 2 0 2 2 2 3 4 5 3 2 4 6 5 3 3 5 14 10 10 16 18 15 14 15
17 16 15 14 12 10 7 5 5 5 5 5 4 5 4 4 4 4 2 3 2 1 2 2 3 3 4 6 6 6 6 6 5 3 2 10 10 10 12 15 18 20 19
16 15 14 14 12 9 8 8 8 5 5 4 4 5 5 4 4 3 3 2 1 1 3 3 3 4 4 5 5 6 5 6 5 5 4 4 8 9 10 11 11 13 15
12 15 16 14 12 10 8 6 7 6 6 5 4 5 5 4 4 4 3 1 2 4 4 5 5 4 5 4 5 5 5 6 6 5 4 4 3 5 6 9 12 11 12
12 13 13 11 11 10 7 4 5 6 5 4 4 4 4 4 3 3 2 2 4 4 4 4 3 4 4 4 3 4 4 4 6 6 4 4 4 4 7 13 14 16 16
12 10 10 11 12 11 8 5 3 6 4 4 3 3 4 3 4 5 4 4 5 4 4 3 4 3 2 4 4 4 5 3 4 5 8 7 7 5 4 10 14 16 18
10 8 8 7 8 6 5 5 2 3 3 4 4 4 5 4 6 7 5 5 5 4 4 3 4 4 2 2 3 5 5 3 2 5 6 5 5 6 6 6 5 8 19
8 8 8 9 6 6 2 3 2 3 2 2 3 6 6 5 8 7 5 5 5 5 3 3 2 4 4 4 3 5 4 3 3 5 4 5 6 6 6 5 4 5 5
10 9 8 7 6 4 3 3 1 2 1 2 2 3 6 7 7 6 6 5 6 4 4 3 3 1 2 3 2 1 4 5 4 4 4 4 6 6 7 6 5 6 5
11 9 10 8 6 4 4 3 4 4 4 2 1 1 4 8 7 7 6 6 5 4 2 1 2 4 1 3 2 3 3 2 4 3 4 5 6 6 6 7 6 5 6
10 7 9 9 7 5 7 4 6 4 4 3 2 2 4 5 7 7 7 5 4 3 2 1 2 2 3 2 3 0 2 3 1 5 4 5 5 6 7 7 7 5 3
9 8 8 10 8 6 6 5 6 3 2 2 2 3 4 3 6 6 6 5 3 2 2 2 1 1 1 2 3 2 2 1 2 3 5 9 6 5 5 6 5 4 5
7 9 6 11 8 8 8 6 7 7 5 6 2 2 3 1 3 5 5 4 3 3 3 2 2 3 3 4 3 3 3 2 3 2 3 4 4 6 5 5 5 5 3
Wind_Direction
146 146 143 138 131 126 118 114 112 114 116 115 109 103 97 94 96 97 93 90 87 93 95 90 67 47 41 19 9 5 354 348 334 338 342 340 332 320 344 10 114 131 131
139 150 146 140 134 132 130 130 124 122 122 117 109 104 101 100 97 96 96 93 95 84 74 65 47 20 13 9 358 347 340 339 329 331 337 333 320 304 267 211 122 137 136
139 149 149 143 141 143 141 136 131 127 131 123 118 110 112 113 113 109 105 96 85 77 65 51 26 21 8 358 351 338 336 335 333 333 335 328 289 275 242 207 172 154 147
145 152 150 148 147 146 146 140 139 129 125 121 115 124 129 127 123 113 103 90 81 66 45 28 17 7 355 343 341 335 330 332 335 333 340 312 303 291 215 204 194 172 164
148 151 155 153 152 149 143 139 131 128 125 125 134 139 138 134 131 124 123 116 101 90 75 5 352 343 339 331 324 319 321 329 338 345 322 305 296 310 217 197 211 187 175
149 152 148 149 149 146 147 146 138 134 141 147 148 148 145 140 140 142 141 132 135 136 151 237 290 320 327 320 315 320 326 332 343 331 315 306 297 248 195 195 207 192 180
152 151 151 152 148 149 154 150 151 153 155 159 158 156 155 155 157 156 153 164 168 183 210 245 290 320 323 320 319 320 321 330 341 322 317 317 312 223 183 200 204 191 180
151 161 159 156 154 157 161 158 160 162 165 168 169 169 168 169 171 170 184 184 190 201 230 251 274 294 307 312 316 314 316 320 332 311 316 314 292 154 189 210 203 193 197
159 158 158 159 164 163 162 161 166 169 174 176 179 178 176 180 181 197 208 205 215 228 246 267 279 289 295 301 305 307 307 310 305 296 306 284 258 220 203 211 203 200 209
160 161 158 161 164 160 170 171 175 177 180 183 186 190 186 191 198 215 224 233 238 243 256 266 279 285 289 292 293 298 310 315 296 303 285 254 237 247 251 252 250 235 228
166 168 166 164 163 168 173 180 184 181 184 189 194 196 189 199 221 225 231 236 242 251 261 270 281 293 290 288 302 313 314 302 24 291 295 282 226 227 232 240 240 239 238
173 173 177 170 170 169 174 188 185 186 178 180 193 197 175 210 222 235 247 255 250 254 262 269 281 283 289 295 299 309 313 313 329 330 310 267 233 237 243 241 237 232 232
175 171 181 176 176 175 180 176 173 189 181 183 193 194 193 195 247 242 234 254 242 255 266 285 310 293 283 290 312 321 317 336 335 331 336 299 257 259 259 250 250 246 244
176 177 178 180 178 183 173 179 176 188 194 192 207 189 166 200 221 227 232 241 229 286 270 235 288 289 290 288 318 357 360 347 345 15 7 28 359 300 295 300 283 273 261
177 177 178 177 185 183 169 174 175 194 190 197 178 192 170 161 161 147 156 115 140 215 259 275 306 312 357 7 9 5 350 335 353 14 26 21 16 2 358 346 317 296 281
169 170 170 181 186 171 173 177 189 187 173 156 155 156 159 158 124 98 78 102 197 226 24 12 37 47 39 34 11 360 360 2 338 4 360 357 357 348 347 353 358 354 346
166 167 174 172 176 164 169 178 185 162 143 137 156 163 146 112 99 93 90 10 339 29 39 60 60 50 36 14 11 6 360 348 356 16 11 342 360 330 307 308 307 302 309
156 173 172 167 154 151 140 147 154 134 129 155 169 147 127 122 138 109 104 16 32 67 62 74 52 49 37 18 348 343 333 7 12 21 5 346 304 291 319 310 303 301 290
154 155 151 146 140 142 147 141 138 127 139 164 135 128 142 143 146 75 51 63 76 63 67 71 49 73 37 360 332 336 329 14 13 348 341 331 315 315 298 303 306 305 291
146 133 117 114 125 126 129 116 136 135 127 133 153 171 152 147 92 103 88 77 71 82 59 60 78 37 44 314 330 339 311 359 322 349 327 321 304 291 282 274 279 280 289
93 115 128 125 144 140 119 121 125 164 139 149 144 138 140 118 122 110 100 88 75 69 66 47 79 45 357 360 13 335 324 29 329 334 324 315 311 303 280 263 270 277 299
141 135 116 124 146 147 131 102 117 144 226 120 139 123 135 123 126 113 118 102 92 90 62 63 71 30 349 20 6 51 352 336 322 296 301 313 307 305 297 277 263 272 238
134 139 133 139 150 153 129 90 74 62 42 15 55 106 139 137 134 130 108 103 92 96 110 118 103 81 25 317 76 126 352 303 328 300 309 303 315 312 301 299 268 242 254
129 132 131 128 137 163 143 147 135 160 160 198 218 161 142 135 129 119 114 117 117 135 132 193 140 124 133 270 328 270 222 184 287 328 307 299 300 307 308 309 314 318 318
114 127 132 119 98 96 116 135 127 130 175 139 79 102 93 109 119 120 129 142 140 164 186 170 218 249 191 192 192 277 299 281 201 181 291 325 333 327 312 318 307 307 327
131 129 147 111 113 101 104 112 129 156 126 104 115 190 132 147 135 140 144 150 161 184 214 237 235 242 254 237 207 216 213 205 266 230 254 283 270 303 304 305 340 327 319